Temperature
26 24 23 22 21 21 20 20 20 20 19 19 19 19 19 19 19 19 19 19 19 18 18 18 18 18 18 18 18 18 18 18 18 18 18 18 18 18 18 18 18 17 17
26 24 23 22 21 21 20 20 20 20 20 19 19 19 19 19 19 19 19 18 18 18 18 18 18 18 18 18 18 18 18 18 18 18 18 18 18 18 18 18 18 18 18
26 24 23 22 21 20 20 20 20 20 20 20 19 19 18 18 18 18 18 18 18 18 18 18 18 18 18 18 18 18 18 18 18 18 18 18 18 18 18 18 18 18 18
26 25 23 22 21 21 20 20 20 20 20 20 19 19 19 19 19 19 19 18 18 18 18 18 18 18 18 18 18 18 18 18 18 18 18 18 18 18 18 18 18 18 18
27 25 24 22 22 21 20 20 20 20 20 20 20 19 19 19 19 19 19 18 18 18 18 18 18 18 18 18 18 17 18 17 18 18 18 18 18 18 18 18 18 18 18
27 25 24 23 22 21 20 20 20 20 20 20 19 19 19 19 19 18 18 18 18 18 18 18 18 18 18 18 17 17 17 17 17 18 18 18 18 18 18 18 18 18 18
27 25 24 23 22 21 20 20 20 20 20 19 19 19 19 19 19 18 18 18 18 18 18 18 18 18 18 18 17 17 17 17 17 18 18 18 18 18 18 18 18 18 18
27 26 24 23 22 21 20 20 20 20 20 19 19 19 19 19 18 18 18 18 18 18 18 18 18 18 17 17 17 17 17 17 17 17 18 18 18 18 18 18 18 18 18
27 26 25 23 22 21 21 20 20 20 19 19 19 19 19 19 18 18 18 18 18 18 18 18 17 17 17 17 17 17 17 17 17 17 17 17 17 17 18 18 18 18 18
26 25 24 23 22 22 21 20 20 19 19 19 19 19 19 18 18 18 18 18 18 17 17 17 17 17 17 17 17 17 17 17 17 17 17 17 17 17 17 17 17 17 17
26 25 24 23 22 21 21 20 20 19 19 19 19 19 18 18 18 18 18 18 18 18 17 17 17 17 17 17 17 17 17 17 17 17 17 17 17 17 17 17 17 17 17
26 24 23 23 22 21 21 20 20 19 19 19 19 18 18 18 18 18 18 18 18 17 17 17 17 17 17 17 17 17 17 17 17 17 17 17 17 17 17 17 17 17 17
25 23 23 22 21 21 20 20 20 19 19 19 19 18 18 18 18 18 18 17 17 17 17 17 17 17 17 17 17 17 17 17 17 17 17 17 16 17 17 17 16 16 16
23 22 22 21 21 20 20 20 19 19 19 19 18 18 18 18 17 17 17 17 17 17 17 17 17 17 17 17 17 17 16 16 16 16 16 16 16 16 16 16 16 16 16
23 22 21 20 20 20 19 19 19 19 19 18 18 18 18 18 17 17 17 17 17 17 17 16 16 16 16 16 16 16 16 16 16 16 16 16 16 16 16 16 16 16 16
22 21 21 20 20 19 19 19 19 18 18 18 18 18 17 17 17 17 17 17 17 17 16 16 16 16 16 16 16 16 16 16 16 16 16 16 16 16 16 16 16 15 15
22 21 20 20 19 19 18 18 18 18 18 18 17 17 17 17 17 17 17 16 16 16 16 16 16 16 16 16 16 16 16 16 16 16 16 15 15 15 15 15 15 15 15
21 20 19 19 19 18 18 18 18 18 17 17 17 17 17 17 16 16 16 16 16 16 16 16 16 16 16 16 16 16 16 15 15 15 15 15 15 15 15 15 15 14 14
19 19 18 18 18 18 17 17 17 17 17 17 16 16 16 16 16 16 16 16 16 16 15 15 15 15 15 15 15 15 15 15 15 15 15 15 15 14 14 14 14 14 13
18 18 17 17 17 17 17 17 17 16 16 16 16 16 16 16 16 16 16 15 15 15 15 15 15 15 15 15 15 15 15 14 14 14 14 14 14 14 14 14 13 13 13
17 17 17 16 16 16 16 16 16 16 16 16 16 16 15 16 16 15 15 15 15 15 15 14 14 14 14 14 14 14 14 14 14 13 13 13 13 13 13 13 13 12 12
16 16 16 16 16 16 16 15 15 15 15 15 15 15 15 15 15 15 15 15 15 14 14 14 14 14 13 13 13 13 13 13 13 13 13 12 12 12 12 12 12 12 12
16 15 15 15 15 15 15 15 15 15 15 15 15 15 15 15 14 14 14 14 14 13 13 13 13 13 13 12 12 13 13 12 12 12 12 12 12 11 11 11 11 11 11
15 15 15 14 14 14 14 14 14 14 14 14 14 14 14 14 14 14 14 13 13 13 13 12 12 12 12 12 12 12 12 12 12 11 11 11 11 11 11 10 10 10 10
14 14 14 14 14 14 14 14 14 14 14 14 13 13 13 13 13 13 13 13 12 12 12 12 12 12 12 11 11 11 11 11 11 11 11 11 10 10 10 10 10 9 9
14 14 13 13 13 13 13 13 13 13 13 13 13 13 13 12 12 12 12 11 12 11 12 12 12 11 11 11 11 11 11 11 11 10 10 10 10 9 9 9 9 9 8
Wind_Speed
17 17 17 17 16 15 15 14 13 12 11 9 9 8 7 6 5 6 10 12 11 11 7 4 5 4 4 4 5 4 4 2 2 1 1 2 4 5 4 4 4 6 9
17 17 17 17 17 15 15 15 14 14 12 9 8 7 7 7 6 5 8 12 11 11 10 5 5 5 3 4 4 4 2 3 3 2 2 1 1 3 6 5 5 5 7
19 19 18 17 17 17 16 16 14 13 13 11 8 7 5 6 6 6 7 8 11 11 9 8 6 6 5 5 5 5 4 3 3 3 2 2 1 2 3 6 6 5 4
18 19 19 18 17 16 16 13 14 13 13 12 11 11 10 9 9 7 7 8 10 10 10 9 7 6 5 6 7 7 5 4 3 3 2 2 2 1 1 3 3 5 6
16 19 19 17 16 16 15 14 13 13 13 12 12 11 11 9 8 8 9 9 9 9 10 9 7 7 5 6 6 6 6 4 4 3 3 3 3 4 2 3 3 3 4
14 16 16 15 14 15 14 14 13 13 12 13 13 12 12 10 9 8 9 9 8 8 9 10 8 8 6 6 6 6 7 5 5 4 3 3 3 3 3 3 3 4 4
13 15 16 16 14 14 14 13 13 13 13 13 13 13 12 11 10 9 9 9 8 9 10 10 8 8 7 7 7 7 7 7 5 5 4 3 4 3 3 3 3 3 2
12 14 15 14 14 14 13 13 13 13 13 13 12 12 11 10 9 9 9 9 8 8 10 9 9 9 8 9 7 7 7 6 7 8 6 4 4 3 3 3 3 2 3
10 11 12 12 12 12 12 12 12 11 11 11 11 11 11 10 10 9 8 8 7 7 9 9 10 9 9 8 8 6 7 7 7 7 7 5 4 4 3 3 3 3 3
10 10 10 9 9 9 9 10 10 10 10 10 10 10 11 10 9 8 9 8 8 7 8 9 9 9 9 9 8 7 8 8 7 6 6 6 5 4 4 3 3 2 3
10 10 9 8 8 7 8 8 8 9 8 8 8 8 8 9 9 8 9 8 7 7 7 8 8 9 9 8 8 8 8 9 8 8 8 7 6 4 3 3 3 3 3
10 10 9 8 7 7 6 7 8 8 8 8 7 7 7 7 8 8 7 7 7 7 7 7 7 8 8 8 9 9 9 9 9 9 8 7 7 6 5 3 4 3 3
10 9 8 7 6 6 5 5 6 7 7 6 6 6 6 7 6 6 6 6 7 7 7 7 8 8 7 7 8 8 8 8 8 8 8 7 7 7 6 5 4 3 4
10 9 8 7 6 5 5 4 4 4 5 5 6 5 5 5 4 4 4 5 5 6 6 6 6 6 6 6 6 7 7 7 6 6 7 7 7 7 6 5 4 3 3
11 9 8 6 6 5 4 3 3 4 4 5 5 4 4 4 4 4 4 4 4 5 4 5 5 5 5 5 6 6 7 6 6 5 4 4 4 4 3 3 2 2 2
10 10 8 7 6 5 4 4 5 4 4 4 4 4 4 4 4 4 4 4 3 3 4 4 4 3 3 3 4 4 4 4 4 3 3 3 4 5 4 3 2 1 2
10 9 7 6 5 4 4 4 5 5 5 4 4 4 4 4 4 4 5 4 3 3 3 3 3 2 2 3 3 4 3 2 2 2 2 2 2 3 3 3 3 1 1
9 8 7 6 5 5 5 4 4 5 5 5 4 4 4 4 4 4 4 4 3 3 3 3 3 3 3 3 3 4 3 3 3 2 2 2 3 2 1 2 3 2 2
10 8 7 6 6 5 4 5 6 6 5 5 5 4 4 4 4 5 4 4 4 4 4 4 5 5 4 5 4 4 4 4 5 5 6 6 6 6 5 4 4 3 2
10 8 7 7 7 6 6 7 7 6 6 5 5 5 5 5 5 5 5 5 6 7 7 7 6 6 7 8 7 6 4 5 5 6 7 9 8 8 7 5 4 3 1
10 9 8 7 6 6 7 7 7 6 5 6 6 6 6 6 6 6 6 7 8 8 8 9 9 9 9 10 10 8 5 5 6 6 5 5 8 9 9 7 4 2 1
11 10 8 8 7 7 7 7 7 6 6 7 9 9 8 7 7 8 8 8 8 9 8 8 8 8 8 10 10 11 10 8 7 6 5 5 8 9 8 5 4 4 3
9 9 9 8 8 8 8 8 7 7 8 10 10 10 10 10 9 9 9 7 7 7 7 7 7 7 6 8 11 12 11 10 7 5 7 6 6 5 4 5 5 4 3
10 9 10 10 9 9 9 8 8 8 10 11 11 10 11 11 11 10 9 8 6 6 7 7 7 7 6 5 4 5 6 7 6 4 4 4 3 2 3 3 3 3 4
10 10 10 10 10 10 9 9 8 9 11 11 11 11 11 12 12 12 11 10 9 7 7 7 6 6 6 6 7 5 5 4 3 2 2 3 3 4 5 4 4 4 4
10 10 11 11 11 10 10 9 8 9 10 10 10 9 9 10 11 12 12 17 15 17 17 15 11 9 9 8 11 12 11 10 8 6 5 6 5 5 5 4 4 4 4
Wind_Direction
173 170 170 171 171 168 168 173 177 171 171 178 182 187 186 187 189 183 171 170 180 181 192 180 156 185 176 163 159 153 162 198 202 187 190 218 198 187 182 205 190 189 193
170 170 172 174 175 174 174 177 182 179 181 183 185 189 184 185 191 192 168 176 184 182 188 187 175 182 174 166 161 152 170 207 192 178 159 226 239 231 212 195 196 200 196
173 173 177 178 179 180 182 185 185 184 186 182 183 189 181 190 196 189 176 184 187 188 193 182 188 177 183 175 179 176 191 207 208 205 179 182 212 228 232 215 203 190 197
175 175 179 180 183 183 184 184 183 186 189 186 190 190 192 195 198 188 182 187 192 193 196 187 193 184 191 172 186 187 193 200 217 220 215 189 167 190 234 255 218 201 209
177 175 179 180 184 185 185 185 184 188 189 193 197 196 202 202 197 189 183 186 191 196 201 195 191 192 201 191 192 173 188 197 219 224 210 214 207 214 206 239 238 231 222
176 171 172 174 181 184 185 185 186 190 191 196 202 204 206 204 199 192 186 188 190 197 203 201 193 195 206 201 192 182 191 205 221 239 237 209 208 223 221 226 229 234 236
169 166 170 174 180 184 185 186 187 192 195 200 205 207 209 207 202 200 195 194 195 196 201 205 194 198 202 200 196 194 205 204 212 227 244 240 229 227 238 228 243 248 245
165 167 168 173 180 183 184 186 189 194 197 203 206 209 210 211 209 208 205 202 204 201 196 197 195 198 199 206 200 201 207 204 209 223 229 248 248 241 246 235 235 258 261
159 159 163 170 178 181 184 188 190 194 197 203 203 208 210 212 211 208 210 210 209 208 195 195 197 200 201 205 202 208 212 205 207 221 222 230 245 243 251 249 230 226 254
157 155 153 159 168 176 178 184 186 193 198 202 203 208 208 211 209 211 214 209 207 208 195 199 200 201 202 204 206 207 212 211 211 218 223 218 233 236 230 236 243 229 234
153 148 145 148 153 158 168 174 180 186 192 199 202 208 203 206 206 209 212 209 203 201 198 198 200 200 204 206 206 209 206 212 214 220 221 217 222 233 234 230 236 240 236
139 135 135 140 145 151 161 167 173 181 186 191 193 201 201 200 203 207 206 199 197 199 198 198 200 205 207 206 205 211 213 215 217 219 220 219 222 226 235 239 246 247 245
123 123 124 129 132 137 140 148 166 176 178 177 182 190 197 198 198 196 193 192 193 195 194 197 201 208 210 209 210 212 219 219 216 216 218 220 223 229 232 230 238 246 256
123 121 118 118 118 120 127 141 155 162 163 164 172 178 183 184 186 179 177 184 189 190 189 196 198 204 209 208 211 213 216 219 218 219 221 222 224 225 228 232 235 240 253
129 124 122 118 118 118 119 128 134 133 144 151 160 163 165 167 172 169 167 170 180 183 182 188 193 199 206 215 216 215 216 220 221 216 215 210 190 185 196 215 212 238 246
130 127 124 122 119 123 131 123 116 111 116 132 141 143 145 150 149 149 151 150 154 163 167 174 177 185 207 201 193 198 212 213 207 199 198 185 160 144 141 130 119 156 232
124 121 117 114 109 110 108 114 117 116 114 114 111 118 133 139 139 149 143 144 146 144 146 144 135 131 102 98 131 151 163 159 166 176 182 190 144 121 136 144 145 81 8
116 113 114 105 96 96 105 105 109 110 111 109 104 105 120 125 127 128 131 133 128 125 123 119 111 96 70 91 126 128 133 109 98 86 91 103 75 61 98 136 120 95 55
106 99 97 96 86 83 93 101 97 95 95 93 87 84 94 106 112 118 120 123 121 112 101 94 95 88 61 59 86 112 114 107 89 73 62 71 71 49 62 90 98 86 55
104 101 97 93 84 76 82 92 92 87 85 87 84 80 82 88 90 98 103 104 105 99 92 81 75 74 67 59 72 95 103 103 94 83 72 64 68 58 65 88 94 88 53
104 100 94 91 83 79 84 89 86 84 85 90 86 80 82 86 84 91 96 102 102 98 90 82 73 67 63 63 65 76 98 103 98 91 81 66 65 69 69 73 75 70 19
106 102 95 89 83 84 88 88 83 81 85 86 81 76 73 76 83 88 90 95 100 98 93 87 77 66 59 58 65 69 75 85 91 91 91 86 76 72 69 71 63 50 30
99 100 99 92 84 85 89 90 85 84 88 86 81 79 75 70 69 75 81 83 85 93 94 91 86 77 70 65 68 74 76 78 87 92 105 110 106 96 83 72 53 44 36
95 95 95 91 84 81 83 86 92 95 94 93 88 84 80 73 64 61 61 64 62 80 89 90 89 82 66 54 58 76 84 90 93 108 119 115 89 83 71 69 59 58 47
95 93 92 90 87 83 81 84 92 100 99 98 96 91 86 84 76 68 57 65 55 57 76 81 80 81 71 34 38 62 60 60 68 94 109 93 77 68 63 61 55 47 37
99 97 93 90 88 84 82 84 92 101 103 103 102 101 100 97 95 91 79 60 65 62 62 68 81 75 75 64 55 53 48 42 46 64 70 64 58 55 50 45 47 48 40
Height
1486 1492 1497 1501 1505 1508 1511 1515 1519 1522 1525 1529 1532 1536 1539 1542 1544 1547 1549 1551 1554 1556 1558 1562 1563 1566 1568 1569 1571 1573 1575 1576 1578 1579 1580 1581 1582 1583 1584 1584 1585 1586 1586
1484 1489 1494 1498 1501 1505 1508 1511 1515 1519 1522 1526 1530 1533 1536 1539 1542 1545 1547 1549 1552 1554 1557 1559 1561 1563 1566 1568 1569 1571 1573 1575 1577 1578 1579 1580 1582 1581 1582 1583 1584 1584 1585
1479 1485 1490 1494 1498 1502 1505 1508 1512 1516 1520 1523 1527 1531 1534 1537 1540 1542 1544 1546 1549 1551 1554 1556 1559 1561 1563 1565 1567 1569 1571 1573 1575 1576 1578 1578 1579 1580 1581 1581 1582 1583 1583
1475 1481 1486 1491 1495 1498 1502 1506 1509 1513 1516 1520 1523 1526 1529 1531 1535 1538 1540 1543 1546 1549 1551 1553 1556 1558 1561 1563 1565 1567 1568 1571 1572 1574 1576 1577 1578 1578 1579 1580 1580 1581 1581
1471 1477 1482 1487 1492 1496 1499 1503 1506 1509 1512 1516 1519 1522 1525 1528 1532 1535 1537 1540 1542 1545 1548 1550 1553 1555 1558 1560 1562 1564 1566 1568 1570 1572 1573 1574 1576 1576 1577 1577 1578 1578 1578
1469 1474 1480 1485 1490 1494 1497 1500 1503 1506 1509 1512 1515 1518 1521 1525 1528 1530 1533 1536 1538 1541 1544 1547 1549 1552 1554 1557 1559 1561 1563 1565 1566 1568 1570 1572 1573 1574 1574 1575 1575 1575 1575
1467 1472 1478 1482 1487 1491 1494 1496 1499 1502 1505 1508 1511 1514 1517 1520 1523 1526 1529 1531 1534 1536 1540 1543 1545 1548 1551 1553 1556 1558 1560 1561 1563 1564 1566 1568 1569 1571 1572 1572 1573 1573 1573
1465 1470 1475 1480 1484 1487 1490 1493 1496 1498 1501 1504 1507 1510 1513 1516 1519 1522 1525 1527 1530 1532 1535 1538 1541 1544 1547 1549 1552 1554 1556 1558 1559 1561 1563 1564 1566 1567 1568 1569 1570 1570 1570
1464 1468 1473 1478 1482 1485 1488 1491 1493 1495 1498 1500 1503 1506 1509 1511 1514 1517 1520 1523 1526 1529 1531 1534 1536 1539 1542 1545 1548 1550 1552 1554 1555 1557 1559 1560 1562 1564 1565 1566 1567 1568 1567
1464 1468 1472 1477 1481 1484 1487 1489 1491 1492 1495 1497 1500 1502 1505 1507 1510 1513 1516 1518 1521 1524 1526 1529 1532 1534 1537 1540 1542 1544 1547 1549 1551 1553 1555 1556 1558 1559 1561 1562 1563 1564 1564
1463 1468 1472 1476 1480 1483 1485 1487 1489 1490 1492 1494 1497 1499 1501 1503 1506 1509 1511 1514 1517 1519 1522 1524 1527 1529 1532 1535 1538 1540 1542 1545 1547 1549 1550 1552 1554 1555 1556 1558 1559 1560 1561
1464 1469 1473 1476 1479 1481 1484 1485 1487 1489 1490 1492 1494 1496 1498 1500 1503 1505 1507 1510 1512 1515 1518 1520 1523 1525 1528 1530 1533 1535 1537 1540 1542 1544 1546 1548 1549 1551 1552 1553 1554 1556 1557
1465 1469 1472 1476 1479 1481 1483 1485 1486 1488 1489 1491 1493 1495 1496 1498 1500 1502 1504 1507 1509 1512 1514 1516 1519 1522 1524 1526 1529 1531 1533 1536 1538 1540 1542 1543 1545 1546 1548 1549 1550 1551 1553
1466 1470 1473 1476 1479 1480 1482 1484 1485 1487 1488 1490 1491 1493 1495 1496 1498 1500 1502 1504 1506 1509 1511 1513 1515 1518 1520 1522 1525 1527 1529 1531 1534 1536 1537 1539 1540 1541 1543 1544 1546 1547 1548
1468 1471 1474 1477 1479 1481 1482 1484 1485 1486 1487 1488 1490 1492 1493 1495 1496 1498 1500 1503 1505 1507 1509 1511 1512 1514 1516 1518 1521 1523 1525 1527 1530 1531 1533 1535 1536 1537 1539 1541 1542 1543 1544
1468 1472 1475 1477 1479 1481 1482 1484 1485 1486 1487 1488 1490 1491 1492 1494 1495 1497 1499 1501 1503 1505 1506 1508 1510 1511 1513 1515 1517 1519 1521 1523 1525 1527 1529 1531 1532 1533 1535 1537 1538 1540 1541
1469 1472 1475 1478 1480 1482 1483 1484 1485 1486 1487 1488 1489 1490 1492 1493 1495 1497 1498 1500 1502 1503 1505 1506 1508 1509 1511 1513 1514 1516 1518 1520 1522 1523 1525 1527 1528 1530 1531 1533 1535 1536 1537
1470 1473 1476 1478 1480 1482 1483 1484 1485 1486 1487 1489 1489 1491 1492 1493 1495 1496 1498 1499 1501 1502 1504 1505 1507 1508 1509 1511 1512 1514 1516 1517 1519 1521 1522 1524 1525 1527 1528 1530 1531 1532 1533
1471 1474 1477 1479 1481 1482 1483 1485 1485 1487 1488 1489 1490 1491 1492 1494 1495 1496 1497 1499 1501 1502 1503 1505 1506 1508 1509 1510 1511 1513 1514 1516 1517 1519 1520 1521 1523 1524 1526 1527 1528 1529 1530
1472 1475 1477 1479 1481 1482 1484 1485 1486 1487 1488 1489 1491 1492 1493 1494 1495 1496 1498 1499 1501 1502 1503 1505 1507 1508 1509 1509 1511 1512 1513 1514 1516 1517 1519 1520 1522 1523 1524 1526 1526 1527 1528
1473 1476 1478 1479 1481 1482 1484 1485 1486 1488 1489 1490 1491 1492 1494 1495 1496 1497 1498 1500 1501 1503 1504 1506 1507 1508 1509 1510 1511 1512 1513 1514 1516 1517 1519 1520 1521 1522 1524 1524 1525 1526 1527
1475 1476 1478 1480 1481 1482 1484 1485 1487 1488 1489 1490 1491 1493 1494 1495 1497 1498 1499 1501 1502 1504 1506 1507 1509 1510 1511 1512 1513 1514 1515 1516 1517 1518 1519 1520 1521 1522 1523 1524 1525 1525 1526
1476 1478 1479 1480 1482 1483 1484 1485 1487 1489 1490 1491 1492 1494 1495 1497 1498 1500 1501 1503 1505 1506 1508 1509 1510 1511 1513 1513 1514 1516 1517 1518 1519 1520 1521 1522 1523 1523 1524 1525 1525 1525 1525
1477 1479 1480 1481 1483 1484 1485 1486 1488 1490 1491 1492 1494 1496 1497 1499 1500 1501 1503 1505 1507 1508 1510 1511 1512 1513 1514 1515 1516 1517 1518 1520 1521 1522 1523 1524 1524 1525 1525 1525 1525 1525 1525
1479 1481 1482 1483 1484 1485 1487 1488 1490 1491 1492 1494 1496 1498 1500 1501 1503 1504 1506 1508 1509 1511 1512 1513 1514 1516 1517 1518 1519 1520 1521 1522 1523 1523 1524 1525 1526 1526 1526 1526 1525 1525 1525
1481 1483 1484 1485 1486 1488 1489 1491 1492 1494 1495 1497 1499 1501 1503 1505 1506 1508 1509 1511 1513 1514 1515 1517 1518 1518 1520 1521 1522 1523 1524 1524 1525 1525 1526 1526 1527 1527 1527 1527 1527 1527 1526